Regional Weather Roundup
Issued by NWS Charleston, SC

Current Version | Previous Version | Text Only | Print | Product List | Glossary Off
Versions: 1 2 3 4 5 6 7 8 9 10 11 12 13 14 15 16 17 18 19 20 21 22 23 24 25 26 27 28 29 30 31 32 33 34 35 36 37 38 39 40 41 42 43 44 45 46 47 48 49 50
000 ASUS42 KCHS 241912 RWRCHS REGIONAL WEATHER ROUNDUP NATIONAL WEATHER SERVICE CHARLESTON SC 200 PM EST FRI NOV 24 2017 NOTE: "FAIR" INDICATES FEW OR NO CLOUDS BELOW 12,000 FEET WITH NO SIGNIFICANT WEATHER AND/OR OBSTRUCTIONS TO VISIBILITY. NOT ALL STATIONS ARE QUALITY CONTROLLED. USE DATA WITH CAUTION... ESPECIALLY DEWPOINT OBSERVATIONS. SCZ027-030-031-034>040-042>050-242000- ...SOUTHEAST SOUTH CAROLINA... CITY SKY/WX TMP DP RH WIND PRES REMARKS N CHARLESTON MOSUNNY 63 35 35 N9 29.92F WATERFRONT PRK N/A 58 36 43 NE8 29.78F JOHNS ISLAND FAIR 63 36 36 N8 29.91F PINOPOLIS N/A 55 37 50 N7 29.85F MONCKS CORNER FAIR 59 30 33 N7 29.93F SUMMERVILLE FAIR 61 32 33 N7 29.94F BEAUFORT MCAS SUNNY 65 36 34 N12 29.93F BEAUFORT ARPT FAIR 61 36 39 N12 29.92F HILTON HEAD IS MOSUNNY 63 37 39 N14 29.92F WALTERBORO CLEAR 63 32 31 N8 29.94F ALLENDALE FAIR 63 34 34 N7 29.95S ...SOUTHERN MIDLANDS AND PEE DEE... CITY SKY/WX TMP DP RH WIND PRES REMARKS GEORGETOWN FAIR 59 32 36 N8 29.93F KINGSTREE FAIR 59 30 33 N5 29.95F ORANGEBURG SUNNY 62 35 36 N9 29.96F BARNWELL N/A 63 36 36 N7 29.96F AIKEN FAIR 59 34 38 NE5 30.00F MANNING FAIR 61 36 39 MISG 29.95F COLUMBIA MOSUNNY 64 35 34 VRB3 29.96F SUMTER SUNNY 62 29 29 N7 29.93F FLORENCE SUNNY 61 29 29 NE9 29.96F MYRTLE BEACH MOSUNNY 60 27 28 N12 29.93F N MYRTLE BEACH SUNNY 60 31 33 N10 29.92F $$ GAZ063-065-086>088-099>101-113>116-118-119-134>141-150-242000- ...SOUTHEAST GEORGIA... CITY SKY/WX TMP DP RH WIND PRES REMARKS SAVANNAH ARPT MOSUNNY 65 39 38 N8 29.93F HUNTER AAF SUNNY 65 38 37 NW5 29.90F FORT STEWART SUNNY 65 38 35 NE10 29.91F STATESBORO SUNNY 65 32 28 N10 29.95S SYLVANIA CLEAR 64 38 38 NE8 29.96S CLAXTON FAIR 66 38 36 N7 29.95S ...CSRA...CENTRAL AND FAR SOUTHEAST GEORGIA... CITY SKY/WX TMP DP RH WIND PRES REMARKS THOMSON SUNNY 59 35 41 E5 30.02F AUGUSTA-BUSH SUNNY 63 35 35 VRB3 29.96F AUGUSTA-DANIEL SUNNY 63 36 36 CALM 29.97F SWAINSBORO FAIR 63 36 36 N5 29.96F VIDALIA SUNNY 66 37 34 NE3 29.95F EASTMAN FAIR 66 12 12 CALM 29.99F HAZLEHURST FAIR 68 18 15 N5 29.94F ALMA SUNNY 67 39 35 CALM 29.93F WAYCROSS SUNNY 65 35 33 N6 29.93F JESUP FAIR 66 36 32 CALM 29.93F BAXLEY FAIR 64 36 34 NE9 29.94S BRUNSWICK MOSUNNY 63 37 39 N6 29.93S SAINT SIMONS MOSUNNY 64 42 44 N12 29.91F $$ SCZ027-028-034-036>038-045-046-048>050-GAZ119-141-242000- ...LAKE AND SUPPLEMENTAL COASTAL OBSERVATIONS... STATION/POSITION TIME TEMP WIND PRES WAVE SWELL AIR SEA DIR/SP/G HT/PER HT/PER/DIR (UTC) (F) (DEG/KT/KT) (MB) (FT/S) (FT/S/D) WINYAH BAY NOT AVBL LAKE MURRAY 1820 60 CALM / 3 1014.6 ACE BASIN NERRS 1745 60 350/ 3 1014.0 FORT PULASKI 1848 59 60 10/ 12/ 15 1013.3F SAPELO ISLAND 1800 61 20/ 12 1013.0 $$ ANZ835-935-AMZ111-154-330-350-352-354-370-450-454-472-242000- ...C-MAN AND BUOY OBSERVATIONS... STATION/POSITION TIME TEMP WIND PRES WAVE SWELL AIR SEA DIR/SP/G HT/PER HT/PER/DIR (UTC) (F) (DEG/KT/KT) (MB) (FT/S) (FT/S/D) BUOY 41004 1850 61 30/ 19/ 25 1011.4F 9/10 5/110/10 BUOY 41008 1850 59 66 30/ 19/ 23 1012.0F 6/ 6 3/100/ 9 FOLLY BEACH CMAN 1800 56 20/ 7/ 9 1014.0F CAPERS NEARSHORE 1808 53 61 30/ 14/ 19 1013.0F FRIPP NEARSHORE 1808 55 61 10/ 12/ 21 1012.6F STATION/POSITION TIME TEMP WIND PRES WAVE SWELL AIR SEA DIR/SP/G HT/PER HT/PER/DIR (UTC) (F) (DEG/KT/KT) (MB) (FT/S) (FT/S/D) 5E ST. MARYS GA 1900 67 N/A 6/ 8 2/100/11 FRYING PAN BUOY 1850 61 20/ 21/ 25 1011.8F 8/ 7 5/120/10 BUOY 41025 1900 63 72 30/ 19/ 23 1012.9 CAPE LOOKOUT NC 1800 10/ 17/ 21 1013.8F BUOY 41002 1850 71 76 360/ 27/ 35 1008.0R 9/ 9 5/ 60/ 9 BUOY 41010 NOT AVBL ST AUGUSTINE FL 1900 61 67 350/ 19/ 21 1012.4S $$

USA.gov is the U.S. government's official web portal to all federal, state and local government web resources and services.